Вернуться в каталог

SJ-21

АктивенНаукаGEO
NORAD 49330·PAYLOAD·🇨🇳 China

Запущен Oct 24, 2021 с Xichang Satellite Launch Center

Loading…

TLE

СвежийSource: Space-Track

Эпоха: Sep 14, 2026, 15:36 UTC

1 49330U 21094A   26257.65003169 -.00000354  00000-0  00000-0 0  9990
2 49330   5.3206  60.5749 0053537 171.4574 123.5056  1.00266337  6253

Отслеживайте SJ-21 в реальном времени с AllMySat

Download on the App Store